Year,Month,Day,Hour,Minute,Value (Times are PST for temperature in C)
2013,05,26,08,19,10.70
2013,05,26,08,20,10.70
2013,05,26,08,21,10.80
2013,05,26,08,22,10.80
2013,05,26,08,23,10.80
2013,05,26,08,24,10.80
2013,05,26,08,25,10.80
2013,05,26,08,26,10.80
2013,05,26,08,27,10.80
2013,05,26,08,28,10.80
2013,05,26,08,29,10.80
2013,05,26,08,30,10.80
2013,05,26,08,31,10.80
2013,05,26,08,32,10.80
2013,05,26,08,33,10.80
2013,05,26,08,34,10.80
2013,05,26,08,35,10.80
2013,05,26,08,36,10.90
2013,05,26,08,37,10.90
2013,05,26,08,38,10.90
2013,05,26,08,39,10.90
2013,05,26,08,40,10.90
2013,05,26,08,41,10.90
2013,05,26,08,42,10.90
2013,05,26,08,43,10.90
2013,05,26,08,44,10.90
2013,05,26,08,45,10.90
2013,05,26,08,46,11.00
2013,05,26,08,47,11.10
2013,05,26,08,48,11.00
2013,05,26,08,49,10.90
2013,05,26,08,50,11.00
2013,05,26,08,51,11.10
2013,05,26,08,52,11.10
2013,05,26,08,53,11.10
2013,05,26,08,54,11.10
2013,05,26,08,55,11.10
2013,05,26,08,56,11.10
2013,05,26,08,57,11.10
2013,05,26,08,58,11.10
2013,05,26,08,59,11.10
2013,05,26,09,00,11.10
2013,05,26,09,01,11.10
2013,05,26,09,02,11.10
2013,05,26,09,03,11.20
2013,05,26,09,04,11.20
2013,05,26,09,05,11.20
2013,05,26,09,06,11.20
2013,05,26,09,07,11.20
2013,05,26,09,08,11.20
2013,05,26,09,09,11.20
2013,05,26,09,10,11.20
2013,05,26,09,11,11.20
2013,05,26,09,12,11.20
2013,05,26,09,13,11.30
2013,05,26,09,14,11.30
2013,05,26,09,15,11.30
2013,05,26,09,16,11.30
2013,05,26,09,17,11.30
2013,05,26,09,18,11.20
2013,05,26,09,19,11.20
2013,05,26,09,20,11.20
2013,05,26,09,21,11.20
2013,05,26,09,22,11.20
2013,05,26,09,23,11.20
2013,05,26,09,24,11.20
2013,05,26,09,25,11.20
2013,05,26,09,26,11.20
2013,05,26,09,27,11.20
2013,05,26,09,28,11.20
2013,05,26,09,29,11.20
2013,05,26,09,30,11.20
2013,05,26,09,31,11.20
2013,05,26,09,32,11.20
2013,05,26,09,33,11.20
2013,05,26,09,34,11.20
2013,05,26,09,35,11.20
2013,05,26,09,36,11.10
2013,05,26,09,37,11.20
2013,05,26,09,38,11.20
2013,05,26,09,39,11.20
2013,05,26,09,40,11.20
2013,05,26,09,41,11.30
2013,05,26,09,42,11.30
2013,05,26,09,43,11.30
2013,05,26,09,44,11.30
2013,05,26,09,45,11.30
2013,05,26,09,46,11.30
2013,05,26,09,47,11.30
2013,05,26,09,48,11.30
2013,05,26,09,49,11.30
2013,05,26,09,50,11.30
2013,05,26,09,51,11.30
2013,05,26,09,52,11.30
2013,05,26,09,53,11.40
2013,05,26,09,54,11.40
2013,05,26,09,55,11.40
2013,05,26,09,56,11.40
2013,05,26,09,57,11.40
2013,05,26,09,58,11.40
2013,05,26,09,59,11.40
2013,05,26,10,00,11.40
2013,05,26,10,01,11.40
2013,05,26,10,02,11.30
2013,05,26,10,03,11.30
2013,05,26,10,04,11.30
2013,05,26,10,05,11.30
2013,05,26,10,06,11.30
2013,05,26,10,07,11.30
2013,05,26,10,08,11.30
2013,05,26,10,09,11.30
2013,05,26,10,10,11.30
2013,05,26,10,11,11.30
2013,05,26,10,12,11.30
2013,05,26,10,13,11.30
2013,05,26,10,14,11.30
2013,05,26,10,15,11.40
2013,05,26,10,16,11.40
2013,05,26,10,17,11.40
2013,05,26,10,18,11.40
2013,05,26,10,19,11.40
2013,05,26,10,20,11.40
2013,05,26,10,21,11.40
2013,05,26,10,22,11.40
2013,05,26,10,23,11.40
2013,05,26,10,24,11.40
2013,05,26,10,25,11.40
2013,05,26,10,26,11.40
2013,05,26,10,27,11.40
2013,05,26,10,28,11.50
2013,05,26,10,29,11.60
2013,05,26,10,30,11.60
2013,05,26,10,31,11.60
2013,05,26,10,32,11.60
2013,05,26,10,33,11.60
2013,05,26,10,34,11.60
2013,05,26,10,35,11.60
2013,05,26,10,36,11.60
2013,05,26,10,37,11.60
2013,05,26,10,38,11.60
2013,05,26,10,39,11.60
2013,05,26,10,40,11.60
2013,05,26,10,41,11.70
2013,05,26,10,42,11.70
2013,05,26,10,43,11.70
2013,05,26,10,44,11.70
2013,05,26,10,45,11.70
2013,05,26,10,46,11.70
2013,05,26,10,47,11.70
2013,05,26,10,48,11.70
2013,05,26,10,49,11.70
2013,05,26,10,50,11.60
2013,05,26,10,51,11.60
2013,05,26,10,52,11.60
2013,05,26,10,53,11.60
2013,05,26,10,54,11.60
2013,05,26,10,55,11.60
2013,05,26,10,56,11.70
2013,05,26,10,57,11.70
2013,05,26,10,58,11.70
2013,05,26,10,59,11.70
2013,05,26,11,00,11.80
2013,05,26,11,01,11.80
2013,05,26,11,02,11.80
2013,05,26,11,03,11.80
2013,05,26,11,04,11.80
2013,05,26,11,05,11.80
2013,05,26,11,06,11.80
2013,05,26,11,07,11.80
2013,05,26,11,08,11.80
2013,05,26,11,09,11.80
2013,05,26,11,10,11.80
2013,05,26,11,11,11.80
2013,05,26,11,12,11.80
2013,05,26,11,13,11.80
2013,05,26,11,14,11.80
2013,05,26,11,15,11.80
2013,05,26,11,16,11.70
2013,05,26,11,17,11.70
2013,05,26,11,18,11.70
2013,05,26,11,19,11.70
2013,05,26,11,20,11.70
2013,05,26,11,21,11.70
2013,05,26,11,22,11.80
2013,05,26,11,23,11.80
2013,05,26,11,24,11.70
2013,05,26,11,25,11.70
2013,05,26,11,26,11.60
2013,05,26,11,27,11.60
2013,05,26,11,28,11.60
2013,05,26,11,29,11.60
2013,05,26,11,30,11.60
2013,05,26,11,31,11.70
2013,05,26,11,32,11.70
2013,05,26,11,33,11.70
2013,05,26,11,34,11.80
2013,05,26,11,35,11.80
2013,05,26,11,36,11.80
2013,05,26,11,37,11.80
2013,05,26,11,38,11.80
2013,05,26,11,39,11.80
2013,05,26,11,40,11.80
2013,05,26,11,41,11.80
2013,05,26,11,42,11.90
2013,05,26,11,43,11.90
2013,05,26,11,44,12.00
2013,05,26,11,45,12.10
2013,05,26,11,46,12.10
2013,05,26,11,47,12.10
2013,05,26,11,48,12.10
2013,05,26,11,49,12.10
2013,05,26,11,50,12.20
2013,05,26,11,51,12.20
2013,05,26,11,52,12.20
2013,05,26,11,53,12.20
2013,05,26,11,54,12.20
2013,05,26,11,55,12.30
2013,05,26,11,56,12.20
2013,05,26,11,57,12.20
2013,05,26,11,58,12.10
2013,05,26,11,59,12.10
2013,05,26,12,00,12.20
2013,05,26,12,01,12.20
2013,05,26,12,02,12.20
2013,05,26,12,03,12.30
2013,05,26,12,04,12.30
2013,05,26,12,05,12.30
2013,05,26,12,06,12.30
2013,05,26,12,07,12.30
2013,05,26,12,08,12.30
2013,05,26,12,09,12.30
2013,05,26,12,10,12.30
2013,05,26,12,11,12.30
2013,05,26,12,12,12.30
2013,05,26,12,13,12.40
2013,05,26,12,14,12.40
2013,05,26,12,15,12.50
2013,05,26,12,16,12.50
2013,05,26,12,17,12.50
2013,05,26,12,18,12.50
2013,05,26,12,19,12.50
2013,05,26,12,20,12.50
2013,05,26,12,21,12.60
2013,05,26,12,22,12.70
2013,05,26,12,23,12.60
2013,05,26,12,24,12.60
2013,05,26,12,25,12.60
2013,05,26,12,26,12.60
2013,05,26,12,27,12.70
2013,05,26,12,28,12.70
2013,05,26,12,29,12.70
2013,05,26,12,30,12.70
2013,05,26,12,31,12.70
2013,05,26,12,32,12.60
2013,05,26,12,33,12.60
2013,05,26,12,34,12.50
2013,05,26,12,35,12.50
2013,05,26,12,36,12.50
2013,05,26,12,37,12.50
2013,05,26,12,38,12.60
2013,05,26,12,39,12.60
2013,05,26,12,40,12.60
2013,05,26,12,41,12.60
2013,05,26,12,42,12.70
2013,05,26,12,43,12.70
2013,05,26,12,44,12.80
2013,05,26,12,45,12.80
2013,05,26,12,46,12.80
2013,05,26,12,47,12.80
2013,05,26,12,48,12.80
2013,05,26,12,49,12.70
2013,05,26,12,50,12.70
2013,05,26,12,51,12.70
2013,05,26,12,52,12.70
2013,05,26,12,53,12.70
2013,05,26,12,54,12.70
2013,05,26,12,55,12.70
2013,05,26,12,56,12.70
2013,05,26,12,57,12.70
2013,05,26,12,58,12.70
2013,05,26,12,59,12.70
2013,05,26,13,00,12.70
2013,05,26,13,01,12.70
2013,05,26,13,02,12.70
2013,05,26,13,03,12.80
2013,05,26,13,04,12.70
2013,05,26,13,05,12.70
2013,05,26,13,06,12.70
2013,05,26,13,07,12.60
2013,05,26,13,08,12.60
2013,05,26,13,09,12.70
2013,05,26,13,10,12.70
2013,05,26,13,11,12.70
2013,05,26,13,12,12.70
2013,05,26,13,13,12.60
2013,05,26,13,14,12.70
2013,05,26,13,15,12.70
2013,05,26,13,16,12.80
2013,05,26,13,17,12.80
2013,05,26,13,18,12.90
2013,05,26,13,19,12.90
2013,05,26,13,20,12.90
2013,05,26,13,21,12.90
2013,05,26,13,22,12.90
2013,05,26,13,23,12.90
2013,05,26,13,24,12.90
2013,05,26,13,25,13.00
2013,05,26,13,26,12.90
2013,05,26,13,27,12.90
2013,05,26,13,28,12.90
2013,05,26,13,29,12.90
2013,05,26,13,30,12.90
2013,05,26,13,31,12.90
2013,05,26,13,32,13.00
2013,05,26,13,33,12.90
2013,05,26,13,34,13.00
2013,05,26,13,35,13.00
2013,05,26,13,36,12.90
2013,05,26,13,37,12.90
2013,05,26,13,38,12.90
2013,05,26,13,39,12.90
2013,05,26,13,40,12.90
2013,05,26,13,41,12.90
2013,05,26,13,42,12.90
2013,05,26,13,43,12.90
2013,05,26,13,44,12.90
2013,05,26,13,45,12.90
2013,05,26,13,46,12.90
2013,05,26,13,47,12.90
2013,05,26,13,48,12.90
2013,05,26,13,49,12.90
2013,05,26,13,50,12.90
2013,05,26,13,51,12.90
2013,05,26,13,52,12.90
2013,05,26,13,53,12.90
2013,05,26,13,54,12.90
2013,05,26,13,55,13.00
2013,05,26,13,56,13.00
2013,05,26,13,57,13.10
2013,05,26,13,58,13.10
2013,05,26,13,59,13.10
2013,05,26,14,00,13.10
2013,05,26,14,01,13.10
2013,05,26,14,02,13.10
2013,05,26,14,03,13.10
2013,05,26,14,04,13.00
2013,05,26,14,05,13.00
2013,05,26,14,06,13.00
2013,05,26,14,07,13.00
2013,05,26,14,08,13.00
2013,05,26,14,09,13.00
2013,05,26,14,10,13.00
2013,05,26,14,11,13.00
2013,05,26,14,12,13.10
2013,05,26,14,13,13.10
2013,05,26,14,14,13.10
2013,05,26,14,15,13.10
2013,05,26,14,16,13.10
2013,05,26,14,17,13.10
2013,05,26,14,18,13.20
2013,05,26,14,19,13.20
2013,05,26,14,20,13.10
2013,05,26,14,21,13.10
2013,05,26,14,22,13.10
2013,05,26,14,23,13.20
2013,05,26,14,24,13.20
2013,05,26,14,25,13.20
2013,05,26,14,26,13.30
2013,05,26,14,27,13.30
2013,05,26,14,28,13.30
2013,05,26,14,29,13.30
2013,05,26,14,30,13.30
2013,05,26,14,31,13.40
2013,05,26,14,32,13.40
2013,05,26,14,33,13.40
2013,05,26,14,34,13.40
2013,05,26,14,35,13.50
2013,05,26,14,36,13.50
2013,05,26,14,37,13.60
2013,05,26,14,38,13.60
2013,05,26,14,39,13.60
2013,05,26,14,40,13.70
2013,05,26,14,41,13.70
2013,05,26,14,42,13.70
2013,05,26,14,43,13.70
2013,05,26,14,44,13.70
2013,05,26,14,45,13.70
2013,05,26,14,46,13.70
2013,05,26,14,47,13.70
2013,05,26,14,48,13.70
2013,05,26,14,49,13.70
2013,05,26,14,50,13.70
2013,05,26,14,51,13.80
2013,05,26,14,52,13.90
2013,05,26,14,53,13.90
2013,05,26,14,54,14.00
2013,05,26,14,55,14.00
2013,05,26,14,56,14.10
2013,05,26,14,57,14.10
2013,05,26,14,58,14.10
2013,05,26,14,59,14.00
2013,05,26,15,00,14.00
2013,05,26,15,01,14.00
2013,05,26,15,02,13.90
2013,05,26,15,03,13.90
2013,05,26,15,04,14.00
2013,05,26,15,05,14.00
2013,05,26,15,06,14.10
2013,05,26,15,07,14.10
2013,05,26,15,08,14.10
2013,05,26,15,09,14.00
2013,05,26,15,10,14.00
2013,05,26,15,11,14.00
2013,05,26,15,12,14.00
2013,05,26,15,13,14.00
2013,05,26,15,14,14.00
2013,05,26,15,15,14.00
2013,05,26,15,16,14.10
2013,05,26,15,17,14.10
2013,05,26,15,18,14.20
2013,05,26,15,19,14.10
2013,05,26,15,20,14.10
2013,05,26,15,21,14.00
2013,05,26,15,22,13.90
2013,05,26,15,23,13.90
2013,05,26,15,24,13.80
2013,05,26,15,25,13.80
2013,05,26,15,26,13.70
2013,05,26,15,27,13.70
2013,05,26,15,28,13.70
2013,05,26,15,29,13.70
2013,05,26,15,30,13.70
2013,05,26,15,31,13.70
2013,05,26,15,32,13.70
2013,05,26,15,33,13.70
2013,05,26,15,34,13.70
2013,05,26,15,35,13.70
2013,05,26,15,36,13.70
2013,05,26,15,37,13.70
2013,05,26,15,38,13.80
2013,05,26,15,39,13.80
2013,05,26,15,40,13.80
2013,05,26,15,41,13.80
2013,05,26,15,42,13.80
2013,05,26,15,43,13.80
2013,05,26,15,44,13.80
2013,05,26,15,45,13.80
2013,05,26,15,46,13.90
2013,05,26,15,47,14.00
2013,05,26,15,48,14.00
2013,05,26,15,49,14.00
2013,05,26,15,50,14.00
2013,05,26,15,51,13.90
2013,05,26,15,52,13.90
2013,05,26,15,53,13.90
2013,05,26,15,54,13.90
2013,05,26,15,55,13.90
2013,05,26,15,56,14.00
2013,05,26,15,57,14.00
2013,05,26,15,58,14.00
2013,05,26,15,59,14.00
2013,05,26,16,00,14.00
2013,05,26,16,01,14.10
2013,05,26,16,02,14.20
2013,05,26,16,03,14.30
2013,05,26,16,04,14.30
2013,05,26,16,05,14.30
2013,05,26,16,06,14.30
2013,05,26,16,07,14.30
2013,05,26,16,08,14.30
2013,05,26,16,09,14.30
2013,05,26,16,10,14.30
2013,05,26,16,11,14.40
2013,05,26,16,12,14.40
2013,05,26,16,13,14.50
2013,05,26,16,14,14.60
2013,05,26,16,15,14.60
2013,05,26,16,16,14.70
2013,05,26,16,17,14.80
2013,05,26,16,18,14.80
2013,05,26,16,19,14.80
2013,05,26,16,20,14.80
2013,05,26,16,21,14.80
2013,05,26,16,22,14.90
2013,05,26,16,23,14.90
2013,05,26,16,24,14.90
2013,05,26,16,25,14.90
2013,05,26,16,26,14.90
2013,05,26,16,27,14.80
2013,05,26,16,28,14.80
2013,05,26,16,29,14.90
2013,05,26,16,30,14.80
2013,05,26,16,31,14.80
2013,05,26,16,32,14.80
2013,05,26,16,33,14.80
2013,05,26,16,34,14.80
2013,05,26,16,35,14.80
2013,05,26,16,36,14.80
2013,05,26,16,37,14.80
2013,05,26,16,38,14.70
2013,05,26,16,39,14.70
2013,05,26,16,40,14.60
2013,05,26,16,41,14.50
2013,05,26,16,42,14.50
2013,05,26,16,43,14.50
2013,05,26,16,44,14.50
2013,05,26,16,45,14.50
2013,05,26,16,46,14.50
2013,05,26,16,47,14.50
2013,05,26,16,48,14.50
2013,05,26,16,49,14.40
2013,05,26,16,50,14.40
2013,05,26,16,51,14.50
2013,05,26,16,52,14.40
2013,05,26,16,53,14.40
2013,05,26,16,54,14.40
2013,05,26,16,55,14.30
2013,05,26,16,56,14.40
2013,05,26,16,57,14.50
2013,05,26,16,58,14.40
2013,05,26,16,59,14.30
2013,05,26,17,00,14.20
2013,05,26,17,01,14.20
2013,05,26,17,02,14.00
2013,05,26,17,03,14.00
2013,05,26,17,04,13.90
2013,05,26,17,05,13.90
2013,05,26,17,06,13.80
2013,05,26,17,07,13.70
2013,05,26,17,08,13.70
2013,05,26,17,09,13.70
2013,05,26,17,10,13.70
2013,05,26,17,11,13.70
2013,05,26,17,12,13.70
2013,05,26,17,13,13.70
2013,05,26,17,14,13.80
2013,05,26,17,15,13.70
2013,05,26,17,16,13.70
2013,05,26,17,17,13.70
2013,05,26,17,18,13.80
2013,05,26,17,19,13.80
2013,05,26,17,20,13.80
2013,05,26,17,21,13.70
2013,05,26,17,22,13.80
2013,05,26,17,23,13.80
2013,05,26,17,24,13.80
2013,05,26,17,25,13.70
2013,05,26,17,26,13.70
2013,05,26,17,27,13.70
2013,05,26,17,28,13.70
2013,05,26,17,29,13.70
2013,05,26,17,30,13.70
2013,05,26,17,31,13.60
2013,05,26,17,32,13.60
2013,05,26,17,33,13.50
2013,05,26,17,34,13.50
2013,05,26,17,35,13.50
2013,05,26,17,36,13.50
2013,05,26,17,37,13.50
2013,05,26,17,38,13.40
2013,05,26,17,39,13.40
2013,05,26,17,40,13.30
2013,05,26,17,41,13.30
2013,05,26,17,42,13.40
2013,05,26,17,43,13.40
2013,05,26,17,44,13.40
2013,05,26,17,45,13.40
2013,05,26,17,46,13.40
2013,05,26,17,47,13.40
2013,05,26,17,48,13.40
2013,05,26,17,49,13.50
2013,05,26,17,50,13.50
2013,05,26,17,51,13.60
2013,05,26,17,52,13.60
2013,05,26,17,53,13.70
2013,05,26,17,54,13.70
2013,05,26,17,55,13.70
2013,05,26,17,56,13.70
2013,05,26,17,57,13.80
2013,05,26,17,58,13.80
2013,05,26,17,59,13.90
2013,05,26,18,00,13.90
2013,05,26,18,01,14.00
2013,05,26,18,02,14.00
2013,05,26,18,03,14.00
2013,05,26,18,04,14.00
2013,05,26,18,05,14.00
2013,05,26,18,06,14.00
2013,05,26,18,07,13.90
2013,05,26,18,08,13.80
2013,05,26,18,09,13.80
2013,05,26,18,10,13.70
2013,05,26,18,11,13.80
2013,05,26,18,12,13.80
2013,05,26,18,13,13.80
2013,05,26,18,14,13.80
2013,05,26,18,15,13.80
2013,05,26,18,16,13.80
2013,05,26,18,17,13.80
2013,05,26,18,18,13.80
2013,05,26,18,19,13.90
2013,05,26,18,20,13.90
2013,05,26,18,21,13.90
2013,05,26,18,22,14.00
2013,05,26,18,23,14.00
2013,05,26,18,24,14.00
2013,05,26,18,25,14.00
2013,05,26,18,26,14.00
2013,05,26,18,27,14.00
2013,05,26,18,28,14.00
2013,05,26,18,29,14.00
2013,05,26,18,30,14.00
2013,05,26,18,31,14.00
2013,05,26,18,32,14.00
2013,05,26,18,33,14.00
2013,05,26,18,34,13.90
2013,05,26,18,35,13.90
2013,05,26,18,36,13.90
2013,05,26,18,37,13.90
2013,05,26,18,38,13.90
2013,05,26,18,39,13.80
2013,05,26,18,40,13.80
2013,05,26,18,41,13.80
2013,05,26,18,42,13.80
2013,05,26,18,43,13.80
2013,05,26,18,44,13.80
2013,05,26,18,45,13.80
2013,05,26,18,46,13.80
2013,05,26,18,47,13.80
2013,05,26,18,48,13.80
2013,05,26,18,49,13.80
2013,05,26,18,50,13.80
2013,05,26,18,51,13.80
2013,05,26,18,52,13.80
2013,05,26,18,53,13.80
2013,05,26,18,54,13.80
2013,05,26,18,55,13.80
2013,05,26,18,56,13.70
2013,05,26,18,57,13.70
2013,05,26,18,58,13.70
2013,05,26,18,59,13.70
2013,05,26,19,00,13.70
2013,05,26,19,01,13.70
2013,05,26,19,02,13.70
2013,05,26,19,03,13.70
2013,05,26,19,04,13.70
2013,05,26,19,05,13.70
2013,05,26,19,06,13.70
2013,05,26,19,07,13.70
2013,05,26,19,08,13.70
2013,05,26,19,09,13.70
2013,05,26,19,10,13.70
2013,05,26,19,11,13.70
2013,05,26,19,12,13.80
2013,05,26,19,13,13.80
2013,05,26,19,14,13.80
2013,05,26,19,15,13.80
2013,05,26,19,16,13.90
2013,05,26,19,17,13.90
2013,05,26,19,18,13.90
2013,05,26,19,19,13.90
2013,05,26,19,20,14.00
2013,05,26,19,21,14.00
2013,05,26,19,22,14.00
2013,05,26,19,23,14.00
2013,05,26,19,24,14.00
2013,05,26,19,25,14.00
2013,05,26,19,26,14.00
2013,05,26,19,27,14.10
2013,05,26,19,28,14.10
2013,05,26,19,29,14.10
2013,05,26,19,30,14.10
2013,05,26,19,31,14.10
2013,05,26,19,32,14.10
2013,05,26,19,33,14.00
2013,05,26,19,34,14.00
2013,05,26,19,35,14.00
2013,05,26,19,36,14.00
2013,05,26,19,37,14.00
2013,05,26,19,38,13.90
2013,05,26,19,39,13.90
2013,05,26,19,40,13.80
2013,05,26,19,41,13.70
2013,05,26,19,42,13.70
2013,05,26,19,43,13.60
2013,05,26,19,44,13.50
2013,05,26,19,45,13.50
2013,05,26,19,46,13.40
2013,05,26,19,47,13.40
2013,05,26,19,48,13.30
2013,05,26,19,49,13.30
2013,05,26,19,50,13.30
2013,05,26,19,51,13.30
2013,05,26,19,52,13.30
2013,05,26,19,53,13.30
2013,05,26,19,54,13.30
2013,05,26,19,55,13.30
2013,05,26,19,56,13.30
2013,05,26,19,57,13.30
2013,05,26,19,58,13.30
2013,05,26,19,59,13.30
2013,05,26,20,00,13.30
2013,05,26,20,01,13.30
2013,05,26,20,02,13.30
2013,05,26,20,03,13.40
2013,05,26,20,04,13.40
2013,05,26,20,05,13.40
2013,05,26,20,06,13.40
2013,05,26,20,07,13.40
2013,05,26,20,08,13.40
2013,05,26,20,09,13.40
2013,05,26,20,10,13.40
2013,05,26,20,11,13.40
2013,05,26,20,12,13.40
2013,05,26,20,13,13.40
2013,05,26,20,14,13.40
2013,05,26,20,15,13.40
2013,05,26,20,16,13.40
2013,05,26,20,17,13.40
2013,05,26,20,18,13.40
2013,05,26,20,19,13.40
2013,05,26,20,20,13.40
2013,05,26,20,21,13.40
2013,05,26,20,22,13.30
2013,05,26,20,23,13.30
2013,05,26,20,24,13.30
2013,05,26,20,25,13.30
2013,05,26,20,26,13.30
2013,05,26,20,27,13.30
2013,05,26,20,28,13.30
2013,05,26,20,29,13.30
2013,05,26,20,30,13.30
2013,05,26,20,31,13.30
2013,05,26,20,32,13.30
2013,05,26,20,33,13.30
2013,05,26,20,34,13.30
